2022-152C

Last updated on Tue Nov 15 2022 00:02:04 GMT+0000 (Coordinated Universal Time)

1 54239U 22152C 22317.64998368 -.00002463 77916-5 00000+0 0 9993 2 54239 41.7341 27.7199 0089302 198.1293 297.7325 16.10213745 235
UTC large
Height (km)
Speed (km/s)
/
Latitude / Longitude
Inclination (degrees)
Orbital Period (minutes)
Azimuth
Elevation
Range (km)
Doppler Factor

Next 0 passes for location: London (51.5072 / 0.1276)

Sorry there are no passes over London.
2022-152C